Elmendorf AFB, AK

7:49 AM AKST on January 22, 2018 (GMT -0900)
Elmendorf Air Force Base

Weather History for PAED - June, 2013

Change the Weather History Date:

Sunday, June 30, 2013

  Actual Average Record
Temperature  
Mean Temperature 56 °F -  
Max Temperature 57 °F 62 °F 77 °F (1998)
Min Temperature 54 °F 50 °F 43 °F (1979)
Degree Days  
Heating Degree Days 10    
Growing Degree Days 6 (Base 50)    
Moisture  
Dew Point 49 °F    
Average Humidity 78    
Maximum Humidity 88    
Minimum Humidity 71    
Precipitation  
Precipitation 0.00 in - - ()
Sea Level Pressure  
Sea Level Pressure 29.98 in    
Wind  
Wind Speed 6 mph (NNW)    
Max Wind Speed 14 mph    
Max Gust Speed -    
Visibility 10 miles    
Events      
Averages and records for this station are not official NWS values.
T = Trace of Precipitation, MM = Missing Value Source: NWS Daily Summary

Daily Weather History Graph

Daily Weather History Graph

Search for Another Location

Airport or City:

Trip Planner

Search our weather history database for the weather conditions in past years. The results will help you decide how hot, cold, wet, or windy it might be!

Date:

Astronomy

Jun. 30, 2013 Rise Set
Actual Time 4:25 AM AKDT 11:39 PM AKDT
Civil Twilight 2:35 AM AKDT 1:30 AM AKDT
Nautical Twilight Sun does not rise Sun does not rise
Astronomical Twilight Sun does not rise Sun does not rise
Moon 1:09 AM AKDT (6/30) 3:36 PM AKDT (6/30)
Length of Visible Light 22h 55m
Length of Day
19h 13m
Last Quarter, 44% of the Moon is Illuminated
Jun 30
Last Quarter
Jul 7
New
Jul 15
First Quarter
Jul 22
Full
Jul 29
Last Quarter

Hourly Weather History & Observations

Time (AKDT) Temp. Dew Point Humidity Pressure Visibility Wind Dir Wind Speed Gust Speed Precip Events Conditions
12:55 AM 55.9 °F 51.3 °F 84% 30.04 in 10.0 mi NW 8.1 mph - N/A   Overcast
1:55 AM 55.6 °F 51.3 °F 85% 30.06 in 10.0 mi WNW 6.9 mph - N/A   Overcast
2:04 AM 55.4 °F 51.8 °F 88% 30.06 in 10.0 mi WNW 13.8 mph - N/A   Overcast
2:35 AM 55.4 °F 51.8 °F 88% 30.06 in 10.0 mi WNW 6.9 mph - N/A   Overcast
2:55 AM 56.5 °F 49.6 °F 78% 30.06 in 10.0 mi West 5.8 mph - N/A   Overcast
3:55 AM 56.3 °F 49.6 °F 78% 30.06 in 10.0 mi West 6.9 mph - N/A   Overcast
4:39 AM 55.4 °F 48.2 °F 77% 30.06 in 10.0 mi West 8.1 mph - N/A   Overcast
4:55 AM 55.9 °F 46.8 °F 71% 30.06 in 10.0 mi WNW 5.8 mph - N/A   Overcast
5:55 AM 55.9 °F 47.8 °F 74% 30.05 in 10.0 mi Calm Calm - N/A   Overcast
6:55 AM 55.6 °F 48.0 °F 76% 30.05 in 10.0 mi NNW 5.8 mph - N/A   Overcast
7:55 AM 55.0 °F 47.7 °F 76% 30.05 in 10.0 mi Calm Calm - N/A   Overcast
8:55 AM 54.9 °F 47.8 °F 77% 30.04 in 10.0 mi Calm Calm - N/A   Overcast
9:55 AM 55.6 °F 47.8 °F 75% 30.02 in 10.0 mi Calm Calm - N/A   Overcast
10:55 AM 57.0 °F 48.4 °F 73% 30.01 in 10.0 mi North 3.5 mph - N/A   Overcast
11:03 AM 57.2 °F 48.2 °F 72% 30.01 in 10.0 mi Calm Calm - N/A   Overcast
11:16 AM 57.2 °F 48.2 °F 72% 30.02 in 10.0 mi NW 5.8 mph - N/A   Overcast
11:55 AM 56.3 °F 48.6 °F 75% 30.02 in 10.0 mi WNW 3.5 mph - N/A   Overcast
12:55 PM 55.9 °F 48.0 °F 75% 30.01 in 10.0 mi WNW 8.1 mph - N/A   Overcast
1:36 PM 55.4 °F 48.2 °F 77% 30.00 in 10.0 mi WNW 8.1 mph - N/A   Overcast
1:55 PM 55.0 °F 48.0 °F 77% 30.00 in 10.0 mi Calm Calm - N/A   Overcast
2:55 PM 55.9 °F 48.6 °F 76% 29.97 in 10.0 mi NNE 5.8 mph - N/A   Overcast
3:55 PM 55.4 °F 48.7 °F 78% 29.95 in 10.0 mi NNE 3.5 mph - N/A   Overcast
4:55 PM 55.4 °F 49.1 °F 79% 29.95 in 10.0 mi NE 3.5 mph - N/A   Overcast
5:55 PM 56.5 °F 49.6 °F 78% 29.94 in 10.0 mi Calm Calm - N/A   Overcast
6:55 PM 56.3 °F 49.3 °F 77% 29.91 in 10.0 mi NNE 8.1 mph - N/A   Overcast
7:55 PM 56.1 °F 49.1 °F 77% 29.88 in 10.0 mi NNE 8.1 mph - N/A   Overcast
8:55 PM 55.8 °F 50.0 °F 81% 29.86 in 10.0 mi NNE 10.4 mph - N/A   Overcast
9:41 PM 55.4 °F 50.0 °F 82% 29.85 in 10.0 mi NNE 9.2 mph - N/A   Light Drizzle
9:50 PM 55.4 °F 50.0 °F 82% 29.85 in 10.0 mi NE 8.1 mph - N/A   Mostly Cloudy
9:55 PM 56.1 °F 49.8 °F 79% 29.85 in 10.0 mi NE 8.1 mph - 0.00 in   Mostly Cloudy
10:55 PM 56.3 °F 49.3 °F 77% 29.84 in 10.0 mi NNE 9.2 mph - N/A   Mostly Cloudy
11:55 PM 55.6 °F 49.6 °F 80% 29.83 in 10.0 mi NNE 6.9 mph - N/A   Overcast